User: anonymous   Login
Location: Dead Woman Crossing
(43.5369°N, 106.3228°W)
Time: 12:49:45
(UTC+00:00)
Language:

DMC 3-FM1 - Orbit

View from above orbital plane
View from above orbital plane
View from above satellite
View from above satellite

Ground track
Ground track

The orbit data is extracted from the following two-line orbital elements,

1 40715U 15032A   22342.23356437  .00000549  00000-0  75214-4 0  9995
2 40715  97.8227 225.4100 0005159 326.7905  33.2978 14.82302656399033
Epoch (UTC): 08 December 2022 05:36:19
Eccentricity: 0.0005159
inclination: 97.8227°
perigee height: 618 km
apogee height: 625 km
right ascension of ascending node: 225.4100°
argument of perigee: 326.7905°
revolutions per day: 14.82302656
mean anomaly at epoch: 33.2978°
orbit number at epoch: 39903

The dashed part of the orbit path shows where the satellite is in the earth's shadow,  

DLR